TimeCDT,TemperatureF,Dew PointF,Humidity,Sea Level PressureIn,VisibilityMPH,Wind Direction,Wind SpeedMPH,Gust SpeedMPH,PrecipitationIn,Events,Conditions,WindDirDegrees,DateUTC
12:42 AM,75.2,71.6,89,30.15,10.0,ESE,4.6,-,N/A,,Partly Cloudy,110,2013-07-15 05:42:00
12:53 AM,75.0,72.0,90,30.14,10.0,East,4.6,-,N/A,,Partly Cloudy,90,2013-07-15 05:53:00
1:53 AM,73.9,72.0,93,30.13,10.0,East,8.1,-,N/A,,Partly Cloudy,90,2013-07-15 06:53:00
2:53 AM,73.9,71.1,91,30.13,10.0,East,4.6,-,N/A,,Clear,100,2013-07-15 07:53:00
3:53 AM,73.9,71.1,91,30.14,10.0,East,5.8,-,N/A,,Partly Cloudy,100,2013-07-15 08:53:00
4:53 AM,73.0,70.0,90,30.17,10.0,East,3.5,-,N/A,,Clear,80,2013-07-15 09:53:00
5:53 AM,73.0,70.0,90,30.17,10.0,ESE,5.8,-,N/A,,Clear,110,2013-07-15 10:53:00
6:53 AM,73.9,70.0,87,30.20,10.0,East,6.9,-,N/A,,Overcast,90,2013-07-15 11:53:00
7:53 AM,75.9,71.1,85,30.22,10.0,East,5.8,-,0.01,,Overcast,100,2013-07-15 12:53:00
8:53 AM,78.1,71.1,79,30.24,10.0,ESE,6.9,-,N/A,,Overcast,120,2013-07-15 13:53:00
9:00 AM,78.8,69.8,74,30.26,10.0,SE,9.2,-,N/A,,Overcast,130,2013-07-15 14:00:00
9:10 AM,78.8,69.8,74,30.25,10.0,SE,11.5,-,N/A,,Overcast,130,2013-07-15 14:10:00
9:53 AM,82.0,70.0,67,30.24,10.0,SE,9.2,-,N/A,,Partly Cloudy,130,2013-07-15 14:53:00
10:53 AM,84.9,68.0,57,30.24,10.0,SE,11.5,19.6,N/A,,Partly Cloudy,130,2013-07-15 15:53:00
11:53 AM,84.9,68.0,57,30.24,10.0,SE,11.5,20.7,N/A,,Mostly Cloudy,130,2013-07-15 16:53:00
12:53 PM,86.0,68.0,55,30.23,10.0,SE,12.7,19.6,N/A,,Mostly Cloudy,130,2013-07-15 17:53:00
1:53 PM,84.9,69.1,59,30.22,10.0,ESE,8.1,-,N/A,,Overcast,110,2013-07-15 18:53:00
2:53 PM,88.0,69.1,53,30.19,10.0,Variable,4.6,-,N/A,,Scattered Clouds,0,2013-07-15 19:53:00
3:53 PM,88.0,70.0,55,30.17,10.0,ESE,6.9,-,N/A,,Mostly Cloudy,110,2013-07-15 20:53:00
4:53 PM,87.1,69.1,55,30.17,10.0,SE,3.5,-,N/A,,Clear,130,2013-07-15 21:53:00
5:53 PM,88.0,68.0,51,30.16,10.0,ESE,6.9,-,N/A,,Partly Cloudy,120,2013-07-15 22:53:00
6:53 PM,86.0,68.0,55,30.17,10.0,ESE,4.6,-,N/A,,Clear,110,2013-07-15 23:53:00
7:53 PM,81.0,70.0,69,30.19,10.0,Calm,Calm,-,N/A,,Clear,0,2013-07-16 00:53:00
8:53 PM,75.9,72.0,87,30.21,10.0,ENE,3.5,-,N/A,,Clear,70,2013-07-16 01:53:00
9:53 PM,78.1,71.1,79,30.22,10.0,SE,3.5,-,N/A,,Overcast,130,2013-07-16 02:53:00
10:53 PM,79.0,70.0,74,30.24,10.0,ESE,5.8,-,N/A,,Overcast,120,2013-07-16 03:53:00
11:53 PM,75.9,71.1,85,30.23,10.0,East,5.8,-,0.00,,Mostly Cloudy,90,2013-07-16 04:53:00